KI5QWQ Weather Reports


time (UTC)temp
C
wind
direction
speed
KPH
gust
KPH
rain 1hr
cm
rain 24hr
cm
rain mn
cm
humidity
%
barometer
mb
20260508064626 -17 154 0.0 1.6 0.00 0.00 0.00 1018.3
20260508064124 -17 104 0.0 3.2 0.00 0.00 0.00 1018.6
20260508063621 -17 129 0.0 1.6 0.00 0.00 0.00 1018.6
20260508063119 -17 89 0.0 3.2 0.00 0.00 0.00 1018.7
20260508062616 -17 139 0.0 3.2 0.00 0.00 0.00 1018.6
20260508062112 -17 117 0.0 3.2 0.00 0.00 0.00 1018.6
20260508061610 -17 131 1.6 3.2 0.00 0.00 0.00 1018.7
20260508061108 -17 155 0.0 1.6 0.00 0.00 0.00 1018.9
20260508060603 -17 230 0.0 3.2 0.00 0.00 0.00 1018.7
20260508055556 -17 62 0.0 1.6 0.00 0.00 0.00 1018.5
20260508055054 -17 106 0.0 3.2 0.00 0.00 0.00 1018.2
20260508054550 -17 146 1.6 1.6 0.00 0.00 0.00 1018.3
20260508054047 -17 122 1.6 1.6 0.00 0.00 0.00 1018.4
20260508053544 -17 135 0.0 1.6 0.00 0.00 0.00 1018.6
20260508053042 -17 117 0.0 0.0 0.00 0.00 0.00 1018.5
20260508052539 -17 110 0.0 1.6 0.00 0.00 0.00 1018.5
20260508052036 -17 240 0.0 1.6 0.00 0.00 0.00 1018.7
20260508051532 -17 113 0.0 1.6 0.00 0.00 0.00 1018.4
20260508051027 -17 111 1.6 3.2 0.00 0.00 0.00 1018.5
20260508050524 -17 119 0.0 1.6 0.00 0.00 0.00 1018.8
20260508050021 -17 75 0.0 3.2 0.00 0.00 0.00 1018.6
20260508045518 -17 124 1.6 3.2 0.00 0.00 0.00 1018.6
20260508045015 -17 136 1.6 1.6 0.00 0.00 0.00 1018.8
20260508044513 -17 164 0.0 1.6 0.00 0.00 0.00 1019.3
20260508044008 -17 174 0.0 1.6 0.00 0.00 0.00 1019.1
20260508043505 -17 118 0.0 3.2 0.00 0.00 0.00 1018.8
20260508043002 -17 172 0.0 3.2 0.00 0.00 0.00 1018.9
20260508042459 -17 68 0.0 1.6 0.00 0.00 0.00 1018.7
20260508041956 -17 88 1.6 3.2 0.00 0.00 0.00 1018.5
20260508041452 -17 142 3.2 3.2 0.00 0.00 0.00 1018.7
20260508040949 -17 129 0.0 3.2 0.00 0.00 0.00 1019.3
20260508040447 -17 55 0.0 1.6 0.00 0.00 0.00 1019.0
20260508035944 -17 75 0.0 1.6 0.00 0.00 0.00 1019.0
20260508035441 -17 108 1.6 4.8 0.00 0.00 0.00 1019.0
20260508034938 -17 134 0.0 3.2 0.00 0.00 0.00 1019.4
20260508034435 -17 129 0.0 1.6 0.00 0.00 0.00 1019.4
20260508033931 -17 118 0.0 3.2 0.00 0.00 0.00 1019.4
20260508033430 -17 322 0.0 1.6 0.00 0.00 0.00 1019.5
20260508032927 -17 202 0.0 3.2 0.00 0.00 0.00 1019.2
20260508032424 -17 179 1.6 4.8 0.00 0.00 0.00 1019.2
20260508031921 -17 128 1.6 3.2 0.00 0.00 0.00 1019.4
20260508031418 -17 141 1.6 3.2 0.00 0.00 0.00 1019.5
20260508030914 -17 242 0.0 0.0 0.00 0.00 0.00 1019.4
20260508030411 -17 117 0.0 0.0 0.00 0.00 0.00 1018.7
20260508025908 -17 84 1.6 1.6 0.00 0.00 0.00 1018.5
20260508025405 -17 135 1.6 4.8 0.00 0.00 0.00 1018.1
20260508024902 -17 124 0.0 3.2 0.00 0.00 0.00 1018.3
20260508024358 -17 117 0.0 1.6 0.00 0.00 0.00 1018.4
20260508023855 -17 189 0.0 3.2 0.00 0.00 0.00 1018.2
20260508023352 -17 174 1.6 1.6 0.00 0.00 0.00 1017.8
20260508022849 -17 228 0.0 3.2 0.00 0.00 0.00 1017.5
20260508022344 -17 109 0.0 1.6 0.00 0.00 0.00 1017.5
20260508021841 -17 53 0.0 1.6 0.00 0.00 0.00 1017.3
20260508021338 -17 165 3.2 3.2 0.00 0.00 0.00 1017.4
20260508020833 -17 142 1.6 3.2 0.00 0.00 0.00 1017.2
20260508020332 -17 110 0.0 3.2 0.00 0.00 0.00 1017.3
20260508015829 -17 104 0.0 1.6 0.00 0.00 0.00 1017.5
20260508015326 -17 147 3.2 3.2 0.00 0.00 0.00 1017.1
20260508014822 -17 177 1.6 3.2 0.00 0.00 0.00 1017.3
20260508014320 -17 179 0.0 3.2 0.00 0.00 0.00 1017.5
20260508013815 -17 51 0.0 3.2 0.00 0.00 0.00 1017.6
20260508013312 -17 180 1.6 1.6 0.00 0.00 0.00 1017.6
20260508012809 -17 52 0.0 1.6 0.00 0.00 0.00 1017.3
20260508012307 -17 154 0.0 3.2 0.00 0.00 0.00 1017.3
20260508011804 -17 135 0.0 3.2 0.00 0.00 0.00 1017.3
20260508011301 -17 130 1.6 3.2 0.00 0.00 0.00 1017.1
20260508010758 -17 142 1.6 1.6 0.00 0.00 0.00 1017.2
20260508010256 -17 126 1.6 3.2 0.00 0.00 0.00 1017.9
20260508005753 -17 257 0.0 1.6 0.00 0.00 0.00 1017.9
20260508005249 -17 147 3.2 4.8 0.00 0.00 0.00 1017.9
20260508004745 -17 142 0.0 1.6 0.00 0.00 0.00 1018.4
20260508004242 -17 81 1.6 3.2 0.00 0.00 0.00 1018.1
20260508003738 -17 13 0.0 1.6 0.00 0.00 0.00 1018.0
20260508003236 -17 147 1.6 4.8 0.00 0.00 0.00 1018.0
20260508002732 -17 64 0.0 3.2 0.00 0.00 0.00 1018.0
20260508002230 -17 125 0.0 3.2 0.00 0.00 0.00 1018.2
20260508001725 -17 136 0.0 3.2 0.00 0.00 0.00 1018.7
20260508001221 -17 129 0.0 3.2 0.00 0.00 0.00 1018.5
20260508000717 -17 131 0.0 3.2 0.00 0.00 0.00 1018.7
20260508000215 -17 146 1.6 3.2 0.00 0.00 0.00 1018.6
20260507235711 -17 103 0.0 4.8 0.00 0.00 0.00 1018.8
20260507235209 -17 98 0.0 6.4 0.00 0.00 0.00 1019.1
20260507234705 -17 357 4.8 8.0 0.00 0.00 0.00 1019.3
20260507234202 -17 224 0.0 6.4 0.00 0.00 0.00 1019.2
20260507233659 -17 77 0.0 1.6 0.00 0.00 0.00 1018.9
20260507233157 -17 25 0.0 1.6 0.00 0.00 0.00 1019.0
20260507232653 -17 319 0.0 3.2 0.00 0.00 0.00 1018.8
20260507232151 -17 156 0.0 3.2 0.00 0.00 0.00 1018.3
20260507231647 -17 113 4.8 6.4 0.00 0.00 0.00 1018.2
20260507231144 -17 97 1.6 4.8 0.00 0.00 0.00 1018.4
20260507230641 -17 16 1.6 4.8 0.00 0.00 0.00 1018.6
20260507230138 -17 284 0.0 3.2 0.00 0.00 0.00 1018.7
20260507225637 -17 217 0.0 3.2 0.00 0.00 0.00 1018.6
20260507225134 -17 314 4.8 4.8 0.00 0.00 0.00 1018.7
20260507224630 -17 29 3.2 8.0 0.00 0.00 0.00 1019.0
20260507224127 -17 38 0.0 3.2 0.00 0.00 0.00 1019.0
20260507223623 -17 10 0.0 3.2 0.00 0.00 0.00 1019.3
20260507223120 -17 358 1.6 3.2 0.00 0.00 0.00 1019.3
20260507222617 -17 217 0.0 4.8 0.00 0.00 0.00 1019.0
20260507222113 -17 127 1.6 3.2 0.00 0.00 0.00 1019.0
20260507221609 -17 165 1.6 4.8 0.00 0.00 0.00 1019.3
20260507221106 -17 160 6.4 9.7 0.00 0.00 0.00 1019.1
20260507220604 -17 23 1.6 4.8 0.00 0.00 0.00 1019.6
20260507220101 -17 128 0.0 6.4 0.00 0.00 0.00 1019.6
20260507215557 -17 9 3.2 8.0 0.00 0.00 0.00 1019.8
20260507215055 -17 107 3.2 4.8 0.00 0.00 0.00 1019.7
20260507214552 -17 0 3.2 8.0 0.00 0.00 0.00 1019.9
20260507214048 -17 354 3.2 8.0 0.00 0.00 0.00 1020.0
20260507213544 -17 318 3.2 8.0 0.00 0.00 0.00 1019.9
20260507213042 -17 328 0.0 4.8 0.00 0.00 0.00 1019.6
20260507212537 -17 6 3.2 8.0 0.00 0.00 0.00 1019.7
20260507212034 -17 335 3.2 8.0 0.00 0.00 0.00 1019.7
20260507211531 -17 93 0.0 4.8 0.00 0.00 0.00 1019.6
20260507211027 -17 327 1.6 3.2 0.00 0.00 0.00 1019.6
20260507210525 -17 132 3.2 4.8 0.00 0.00 0.00 1019.1
20260507210021 -17 142 4.8 4.8 0.00 0.00 0.00 1019.6
20260507205518 -17 154 0.0 3.2 0.00 0.00 0.00 1019.8
20260507205014 -17 40 1.6 8.0 0.00 0.00 0.00 1020.0
20260507204510 -17 273 4.8 4.8 0.00 0.00 0.00 1020.3
20260507204008 -17 170 0.0 3.2 0.00 0.00 0.00 1019.9
20260507203506 -17 356 0.0 3.2 0.00 0.00 0.00 1020.1
20260507203003 -17 354 3.2 8.0 0.00 0.00 0.00 1020.2
20260507202458 -17 2 1.6 3.2 0.00 0.00 0.00 1020.2
20260507201955 -17 319 1.6 6.4 0.00 0.00 0.00 1020.5
20260507201450 -17 308 1.6 8.0 0.00 0.00 0.00 1020.5
20260507200947 -17 21 1.6 4.8 0.00 0.00 0.00 1020.4
20260507200442 -17 201 1.6 3.2 0.00 0.00 0.00 1020.0
20260507195938 -17 130 1.6 8.0 0.00 0.00 0.00 1020.3
20260507195436 -17 128 0.0 4.8 0.00 0.00 0.00 1020.3
20260507194934 -17 346 0.0 8.0 0.00 0.00 0.00 1020.5
20260507194430 -17 349 4.8 6.4 0.00 0.00 0.00 1020.9
20260507193926 -17 233 0.0 6.4 0.00 0.00 0.00 1021.1
20260507193423 -17 81 1.6 4.8 0.00 0.00 0.00 1021.2
20260507192919 -17 114 1.6 3.2 0.00 0.00 0.00 1021.1
20260507192416 -17 319 3.2 4.8 0.00 0.00 0.00 1020.9
20260507191913 -17 11 1.6 6.4 0.00 0.00 0.00 1020.5
20260507191409 -17 196 0.0 4.8 0.00 0.00 0.00 1020.9
20260507190906 -17 39 0.0 3.2 0.00 0.00 0.00 1021.2
20260507190404 -17 318 0.0 6.4 0.00 0.00 0.00 1020.6
20260507185903 -17 134 0.0 3.2 0.00 0.00 0.00 1020.6
20260507185359 -17 20 0.0 8.0 0.00 0.00 0.00 1020.7
20260507184856 -17 144 1.6 8.0 0.00 0.00 0.00 1020.9
20260507184354 -17 129 3.2 6.4 0.00 0.00 0.00 1020.9
20260507183850 -17 162 1.6 8.0 0.00 0.00 0.00 1020.6
20260507183348 -17 39 1.6 8.0 0.00 0.00 0.00 1020.8
20260507182845 -17 29 3.2 6.4 0.00 0.00 0.00 1020.9
20260507182341 -17 89 4.8 8.0 0.00 0.00 0.00 1020.7
20260507181837 -17 54 4.8 14.5 0.00 0.00 0.00 1020.9
20260507181333 -17 166 1.6 9.7 0.00 0.00 0.00 1021.0
20260507180830 -17 63 3.2 8.0 0.00 0.00 0.00 1021.2
20260507180327 -17 93 0.0 8.0 0.00 0.00 0.00 1021.5
20260507175822 -17 88 3.2 9.7 0.00 0.00 0.00 1021.9
20260507175320 -17 52 1.6 6.4 0.00 0.00 0.00 1021.8
20260507174817 -17 175 0.0 6.4 0.00 0.00 0.00 1021.2
20260507174315 -17 39 1.6 8.0 0.00 0.00 0.00 1021.0
20260507173812 -17 81 0.0 12.9 0.00 0.00 0.00 1021.0
20260507173309 -17 333 1.6 8.0 0.00 0.00 0.00 1021.5
20260507172805 -17 41 1.6 11.3 0.00 0.00 0.00 1021.3
20260507172307 -17 93 0.0 6.4 0.00 0.00 0.00 1021.6
20260507171758 -17 323 4.8 9.7 0.00 0.00 0.00 1022.1
20260507171255 -17 165 0.0 4.8 0.00 0.00 0.00 1021.1
20260507170752 -17 209 3.2 8.0 0.00 0.00 0.00 1021.1
20260507170248 -17 146 0.0 11.3 0.00 0.00 0.00 1020.7
20260507165744 -17 76 1.6 4.8 0.00 0.00 0.00 1021.0
20260507165241 -17 151 3.2 6.4 0.00 0.00 0.00 1020.9
20260507164737 -17 120 0.0 6.4 0.00 0.00 0.00 1021.8
20260507164234 -17 159 1.6 4.8 0.00 0.00 0.00 1021.7
20260507163731 -17 66 3.2 16.1 0.00 0.00 0.00 1022.7
20260507163229 -17 7 4.8 8.0 0.00 0.00 0.00 1022.2
20260507162725 -17 103 0.0 6.4 0.00 0.00 0.00 1023.0
20260507162221 -17 123 0.0 3.2 0.00 0.00 0.00 1023.3
20260507161718 -17 88 1.6 6.4 0.00 0.00 0.00 1023.4
20260507161214 -17 11 0.0 4.8 0.00 0.00 0.00 1023.0
20260507160710 -17 55 4.8 9.7 0.00 0.00 0.00 1022.4
20260507160207 -17 341 1.6 6.4 0.00 0.00 0.00 1022.1
20260507155703 -17 15 3.2 8.0 0.00 0.00 0.00 1022.8
20260507155159 -17 307 0.0 9.7 0.00 0.00 0.00 1022.6
20260507154655 -17 290 4.8 9.7 0.00 0.00 0.00 1022.6
20260507154153 -17 340 4.8 14.5 0.00 0.00 0.00 1022.4
20260507153650 -17 0 1.6 8.0 0.00 0.00 0.00 1022.4
20260507153146 -17 197 4.8 8.0 0.00 0.00 0.00 1022.2
20260507152643 -17 25 1.6 4.8 0.00 0.00 0.00 1023.1
20260507152139 -17 221 0.0 4.8 0.00 0.00 0.00 1022.7
20260507151635 -17 3 0.0 8.0 0.00 0.00 0.00 1023.2
20260507151132 -17 206 3.2 11.3 0.00 0.00 0.00 1021.7
20260507150629 -17 80 3.2 12.9 0.00 0.00 0.00 1022.4
20260507150125 -17 39 1.6 8.0 0.00 0.00 0.00 1023.1
20260507145620 -17 60 3.2 8.0 0.00 0.00 0.00 1022.8
20260507145119 -17 68 1.6 4.8 0.00 0.00 0.00 1022.1
20260507144614 -17 202 1.6 4.8 0.00 0.00 0.00 1022.2
20260507144113 -17 49 0.0 9.7 0.00 0.00 0.00 1021.8
20260507143609 -17 20 0.0 12.9 0.00 0.00 0.00 1021.8
20260507143106 -17 240 0.0 9.7 0.00 0.00 0.00 1022.3
20260507142601 -17 309 0.0 8.0 0.00 0.00 0.00 1022.3
20260507142059 -17 118 0.0 11.3 0.00 0.00 0.00 1021.8
20260507141554 -17 322 4.8 12.9 0.00 0.00 0.00 1021.8
20260507141051 -17 16 3.2 9.7 0.00 0.00 0.00 1022.3
20260507140548 -17 21 3.2 8.0 0.00 0.00 0.00 1022.1
20260507140046 -17 99 0.0 6.4 0.00 0.00 0.00 1022.1
20260507135542 -17 0 0.0 8.0 0.00 0.00 0.00 1022.1
20260507135040 -17 315 3.2 9.7 0.00 0.00 0.00 1021.9
20260507134536 -17 2 0.0 9.7 0.00 0.00 0.00 1021.5
20260507134032 -17 19 0.0 16.1 0.00 0.00 0.00 1021.4
20260507133528 -17 35 3.2 11.3 0.00 0.00 0.00 1021.6
20260507133027 -17 295 1.6 17.7 0.00 0.00 0.00 1021.6
20260507132523 -17 24 3.2 8.0 0.00 0.00 0.00 1021.8
20260507132019 -17 156 1.6 12.9 0.00 0.00 0.00 1021.7
20260507131516 -17 354 6.4 11.3 0.00 0.00 0.00 1021.9
20260507131013 -17 80 3.2 9.7 0.00 0.00 0.00 1021.7
20260507130510 -17 324 3.2 14.5 0.00 0.00 0.00 1021.8
20260507130009 -17 38 3.2 11.3 0.00 0.00 0.00 1021.5
20260507125507 -17 348 1.6 11.3 0.00 0.00 0.00 1021.6
20260507125004 -17 43 3.2 16.1 0.00 0.00 0.00 1021.7
20260507124500 -17 295 4.8 12.9 0.00 0.00 0.00 1021.7
20260507123958 -17 9 1.6 11.3 0.00 0.00 0.00 1021.9
20260507123455 -17 231 1.6 14.5 0.00 0.00 0.00 1021.8
20260507122951 -17 41 3.2 11.3 0.00 0.00 0.00 1021.6
20260507122447 -17 316 4.8 9.7 0.00 0.00 0.00 1021.4
20260507121943 -17 348 3.2 11.3 0.00 0.00 0.00 1021.3
20260507121438 -17 16 3.2 9.7 0.00 0.00 0.00 1021.1
20260507120935 -17 345 6.4 14.5 0.00 0.00 0.00 1021.0
20260507120224 -17 13 4.8 14.5 0.00 0.00 0.00 1020.6
20260507115720 -17 13 4.8 14.5 0.00 0.00 0.00 1020.6
20260507115216 -17 113 4.8 12.9 0.00 0.00 0.00 1020.6
20260507114712 -17 55 6.4 16.1 0.00 0.00 0.00 1020.7
20260507114210 -17 107 1.6 11.3 0.00 0.00 0.00 1020.8
20260507113707 -17 357 1.6 12.9 0.00 0.00 0.00 1021.0
20260507113203 -17 101 3.2 11.3 0.00 0.00 0.00 1020.9
20260507112701 -17 34 4.8 8.0 0.00 0.00 0.00 1020.9
20260507112158 -17 52 1.6 12.9 0.00 0.00 0.00 1020.7
20260507111655 -17 358 4.8 11.3 0.00 0.00 0.00 1020.6
20260507111152 -17 197 1.6 8.0 0.00 0.00 0.00 1020.7
20260507110648 -17 42 3.2 6.4 0.00 0.00 0.00 1020.7
20260507110145 -17 25 1.6 6.4 0.00 0.00 0.00 1020.6
20260507105642 -17 342 1.6 6.4 0.00 0.00 0.00 1020.6
20260507105137 -17 31 4.8 11.3 0.00 0.00 0.00 1020.7
20260507104635 -17 269 4.8 11.3 0.00 0.00 0.00 1020.8
20260507104131 -17 150 4.8 16.1 0.00 0.00 0.00 1020.7
20260507103627 -17 84 3.2 11.3 0.00 0.00 0.00 1020.2
20260507103124 -17 330 4.8 8.0 0.00 0.00 0.00 1020.1
20260507102621 -17 345 3.2 9.7 0.00 0.00 0.00 1020.3
20260507102117 -17 9 4.8 9.7 0.00 0.00 0.00 1020.8
20260507101613 -17 87 3.2 9.7 0.00 0.00 0.00 1020.7
20260507101109 -17 20 3.2 8.0 0.00 0.00 0.00 1020.5
20260507100606 -17 118 3.2 8.0 0.00 0.00 0.00 1020.3
20260507100105 -17 71 1.6 8.0 0.00 0.00 0.00 1020.4
20260507095602 -17 0 3.2 8.0 0.00 0.00 0.00 1020.4
20260507095058 -17 285 4.8 14.5 0.00 0.00 0.00 1020.5
20260507094555 -17 79 0.0 6.4 0.00 0.00 0.00 1020.5
20260507094052 -17 330 3.2 4.8 0.00 0.00 0.00 1020.4
20260507093549 -17 352 6.4 12.9 0.00 0.00 0.00 1020.0
20260507093048 -17 7 6.4 11.3 0.00 0.00 0.00 1020.0
20260507092544 -17 119 0.0 6.4 0.00 0.00 0.00 1020.0
20260507092041 -17 10 8.0 12.9 0.00 0.00 0.00 1020.2
20260507091538 -17 34 3.2 6.4 0.00 0.00 0.00 1020.2
20260507091034 -17 71 3.2 6.4 0.00 0.00 0.00 1019.7
20260507090529 -17 35 1.6 8.0 0.00 0.00 0.00 1019.9
20260507090026 -17 255 1.6 6.4 0.00 0.00 0.00 1019.4
20260507085524 -17 82 3.2 8.0 0.00 0.00 0.00 1019.6
20260507085020 -17 257 0.0 6.4 0.00 0.00 0.00 1019.3
20260507084517 -17 308 3.2 6.4 0.00 0.00 0.00 1019.3
20260507084014 -17 129 0.0 4.8 0.00 0.00 0.00 1019.6
20260507083510 -17 154 3.2 3.2 0.00 0.00 0.00 1019.1
20260507083007 -17 268 0.0 6.4 0.00 0.00 0.00 1019.4
20260507082503 -17 55 1.6 6.4 0.00 0.00 0.00 1019.2
20260507081959 -17 18 0.0 8.0 0.00 0.00 0.00 1019.0
20260507081455 -17 343 3.2 4.8 0.00 0.00 0.00 1019.2
20260507080953 -17 66 3.2 6.4 0.00 0.00 0.00 1019.3
20260507080448 -17 149 3.2 4.8 0.00 0.00 0.00 1018.9
20260507075944 -17 72 3.2 6.4 0.00 0.00 0.00 1018.6
20260507075441 -17 82 1.6 8.0 0.00 0.00 0.00 1018.7
20260507074937 -17 76 1.6 4.8 0.00 0.00 0.00 1019.2
20260507074434 -17 145 0.0 3.2 0.00 0.00 0.00 1019.0
20260507073932 -17 53 0.0 4.8 0.00 0.00 0.00 1018.4
20260507073428 -17 54 4.8 11.3 0.00 0.00 0.00 1018.7
20260507072925 -17 82 1.6 8.0 0.00 0.00 0.00 1018.5
20260507072423 -17 216 0.0 6.4 0.00 0.00 0.00 1018.6
20260507071920 -17 42 3.2 8.0 0.00 0.00 0.00 1018.7
20260507071417 -17 132 0.0 4.8 0.00 0.00 0.00 1019.0
20260507070913 -17 36 0.0 6.4 0.00 0.00 0.00 1018.9
20260507070411 -17 57 3.2 3.2 0.00 0.00 0.00 1018.7
20260507065907 -17 10 0.0 6.4 0.00 0.00 0.00 1018.7
20260507065404 -17 346 4.8 6.4 0.00 0.00 0.00 1018.5
20260507064901 -17 42 1.6 9.7 0.00 0.00 0.00 1018.4